When you browse on this site, cookies collect data to enhance your experience and personalize the content and advertising you see.
Visit our Privacy Policy to learn more. By continuing to use the site, you agree to this use of cookies and data.
  • En España
  • Lista de países
  • Para 7 días
  • Temperatura del agua
  • El tiempo en el mapa
  • Informadores
  • user-avatar
    Iniciar sesión

    Tiempo cada hora Uige

    Hoy, 12 Diciembre, Jueves

    Tiempo Temperatura Precipitaciones Viento Presión Humedad
    00:00 +20°C° 0 mm 0 mps 691 mmHg 94%
    01:00 +20°C° 0 mm 0 mps 691 mmHg 97%
    02:00 +19°C° 0.1 mm 0 mps 690 mmHg 97%
    03:00 +19°C° 0.1 mm 0 mps 690 mmHg 98%
    04:00 +19°C° 0.1 mm 0 mps 690 mmHg 98%
    05:00 +19°C° 0.1 mm 0 mps 690 mmHg 98%
    06:00 +20°C° 0.1 mm 0 mps 691 mmHg 97%
    07:00 +20°C° 0 mm 0 mps 692 mmHg 98%
    08:00 +21°C° 0.2 mm 0 mps 692 mmHg 93%
    09:00 +25°C° 0.2 mm 1 mps 692 mmHg 89%
    10:00 +26°C° 0.2 mm 1 mps 692 mmHg 84%
    11:00 +26°C° 0.8 mm 1 mps 691 mmHg 83%
    12:00 +27°C° 0.8 mm 1 mps 691 mmHg 82%
    13:00 +28°C° 0.8 mm 1 mps 690 mmHg 81%
    14:00 +27°C° 1.6 mm 1 mps 689 mmHg 85%
    15:00 +26°C° 1.6 mm 1 mps 689 mmHg 90%
    16:00 +25°C° 1.6 mm 1 mps 688 mmHg 94%
    17:00 +22°C° 0.8 mm 0 mps 689 mmHg 95%
    18:00 +21°C° 0.8 mm 0 mps 689 mmHg 95%
    19:00 +20°C° 0.8 mm 0 mps 690 mmHg 95%
    20:00 +20°C° 0.3 mm 0 mps 690 mmHg 95%
    21:00 +20°C° 0.3 mm 0 mps 691 mmHg 95%
    22:00 +19°C° 0.3 mm 0 mps 691 mmHg 96%
    23:00 +19°C° 0 mm 0 mps 691 mmHg 96%

    Mañana, 13 Diciembre, Viernes

    Tiempo Temperatura Precipitaciones Viento Presión Humedad
    00:00 +19°C° 0 mm 0 mps 691 mmHg 97%
    01:00 +21°C° 0 mm 1 mps 690 mmHg 98%
    02:00 +21°C° 0 mm 1 mps 690 mmHg 98%
    03:00 +21°C° 0 mm 1 mps 690 mmHg 98%
    04:00 +21°C° 0 mm 1 mps 690 mmHg 98%
    05:00 +21°C° 0 mm 1 mps 690 mmHg 97%
    06:00 +22°C° 0 mm 1 mps 691 mmHg 96%
    07:00 +20°C° 0 mm 0 mps 691 mmHg 95%
    08:00 +25°C° 0 mm 1 mps 692 mmHg 83%
    09:00 +28°C° 0 mm 1 mps 692 mmHg 71%
    10:00 +30°C° 0 mm 1 mps 693 mmHg 60%
    11:00 +31°C° 0.1 mm 1 mps 692 mmHg 56%
    12:00 +32°C° 0.1 mm 1 mps 691 mmHg 52%
    13:00 +34°C° 0.1 mm 2 mps 690 mmHg 49%
    14:00 +32°C° 0.4 mm 2 mps 690 mmHg 57%
    15:00 +30°C° 0.4 mm 2 mps 689 mmHg 65%
    16:00 +29°C° 0.4 mm 2 mps 688 mmHg 74%
    17:00 +27°C° 2 mm 1 mps 689 mmHg 81%
    18:00 +25°C° 2 mm 1 mps 689 mmHg 89%
    19:00 +23°C° 2 mm 1 mps 690 mmHg 96%
    20:00 +22°C° 1.4 mm 1 mps 690 mmHg 97%
    21:00 +20°C° 1.4 mm 0 mps 690 mmHg 97%
    22:00 +20°C° 1.4 mm 0 mps 691 mmHg 98%
    23:00 +20°C° 0.4 mm 0 mps 691 mmHg 98%

    Pasado mañana, 14 Diciembre, Sábado

    Tiempo Temperatura Precipitaciones Viento Presión Humedad
    00:00 +20°C° 0.4 mm 0 mps 690 mmHg 98%
    01:00 +19°C° 0.4 mm 0 mps 690 mmHg 98%
    02:00 +20°C° 0.4 mm 0 mps 690 mmHg 98%
    03:00 +20°C° 0.4 mm 0 mps 690 mmHg 99%
    04:00 +20°C° 0.4 mm 0 mps 690 mmHg 99%
    05:00 +20°C° 0.3 mm 0 mps 691 mmHg 99%
    06:00 +20°C° 0.3 mm 0 mps 691 mmHg 99%
    07:00 +20°C° 0.3 mm 0 mps 692 mmHg 98%
    08:00 +21°C° 0.6 mm 0 mps 692 mmHg 97%
    09:00 +23°C° 0.6 mm 1 mps 693 mmHg 95%
    10:00 +24°C° 0.6 mm 1 mps 693 mmHg 94%
    11:00 +23°C° 1.9 mm 1 mps 692 mmHg 94%
    12:00 +22°C° 1.9 mm 1 mps 691 mmHg 95%
    13:00 +20°C° 1.9 mm 2 mps 691 mmHg 96%
    14:00 +21°C° 0 mm 1 mps 690 mmHg 94%
    15:00 +22°C° 0 mm 1 mps 690 mmHg 92%
    16:00 +22°C° 0 mm 1 mps 689 mmHg 90%
    17:00 +22°C° 0 mm 1 mps 690 mmHg 89%
    18:00 +20°C° 0 mm 0 mps 690 mmHg 88%
    19:00 +19°C° 0 mm 0 mps 690 mmHg 87%
    20:00 +19°C° 0 mm 0 mps 690 mmHg 88%
    21:00 +19°C° 0 mm 0 mps 691 mmHg 89%
    22:00 +18°C° 0 mm 0 mps 691 mmHg 89%
    23:00 +18°C° 0 mm 0 mps 691 mmHg 89%

    15 Diciembre, Domingo

    Tiempo Temperatura Precipitaciones Viento Presión Humedad
    00:00 +18°C° 0 mm 0 mps 691 mmHg 88%
    01:00 +18°C° 0 mm 0 mps 691 mmHg 88%
    02:00 +18°C° 0 mm 0 mps 690 mmHg 87%
    03:00 +18°C° 0 mm 0 mps 690 mmHg 87%
    04:00 +18°C° 0 mm 0 mps 690 mmHg 87%
    05:00 +19°C° 0 mm 0 mps 690 mmHg 87%
    06:00 +19°C° 0 mm 0 mps 691 mmHg 87%
    07:00 +20°C° 0 mm 0 mps 691 mmHg 87%
    08:00 +21°C° 0 mm 0 mps 692 mmHg 81%
    09:00 +23°C° 0 mm 0 mps 692 mmHg 76%
    10:00 +27°C° 0 mm 1 mps 693 mmHg 70%
    11:00 +27°C° 0.2 mm 1 mps 692 mmHg 70%
    12:00 +28°C° 0.2 mm 1 mps 691 mmHg 69%
    13:00 +28°C° 0.2 mm 2 mps 690 mmHg 69%
    14:00 +28°C° 1.2 mm 2 mps 690 mmHg 76%
    15:00 +27°C° 1.2 mm 1 mps 689 mmHg 83%
    16:00 +26°C° 1.2 mm 1 mps 689 mmHg 90%
    17:00 +25°C° 0.6 mm 1 mps 689 mmHg 92%
    18:00 +24°C° 0.6 mm 1 mps 689 mmHg 93%
    19:00 +20°C° 0.6 mm 0 mps 689 mmHg 95%
    20:00 +20°C° 0 mm 0 mps 690 mmHg 95%
    21:00 +20°C° 0 mm 0 mps 690 mmHg 94%
    22:00 +19°C° 0 mm 0 mps 690 mmHg 94%
    23:00 +19°C° 0 mm 0 mps 690 mmHg 94%

    16 Diciembre, Lunes

    Tiempo Temperatura Precipitaciones Viento Presión Humedad
    00:00 +19°C° 0 mm 0 mps 690 mmHg 94%
    01:00 +19°C° 0 mm 0 mps 690 mmHg 93%
    02:00 +18°C° 0 mm 0 mps 689 mmHg 93%
    03:00 +18°C° 0 mm 0 mps 689 mmHg 93%
    04:00 +18°C° 0 mm 0 mps 689 mmHg 93%
    05:00 +19°C° 0 mm 0 mps 689 mmHg 92%
    06:00 +19°C° 0 mm 0 mps 690 mmHg 92%
    07:00 +20°C° 0 mm 0 mps 690 mmHg 91%
    08:00 +24°C° 0 mm 1 mps 691 mmHg 81%
    09:00 +27°C° 0 mm 1 mps 691 mmHg 70%
    10:00 +30°C° 0 mm 1 mps 692 mmHg 59%
    11:00 +30°C° 0 mm 1 mps 691 mmHg 58%
    12:00 +30°C° 0 mm 1 mps 690 mmHg 58%
    13:00 +31°C° 0 mm 1 mps 689 mmHg 57%
    14:00 +30°C° 0.9 mm 1 mps 689 mmHg 67%
    15:00 +29°C° 0.9 mm 1 mps 688 mmHg 78%
    16:00 +27°C° 0.9 mm 1 mps 687 mmHg 89%
    17:00 +26°C° 0.7 mm 1 mps 687 mmHg 91%
    18:00 +22°C° 0.7 mm 0 mps 688 mmHg 92%
    19:00 +21°C° 0.7 mm 0 mps 688 mmHg 94%
    20:00 +21°C° 0.3 mm 0 mps 688 mmHg 95%
    21:00 +21°C° 0.3 mm 0 mps 689 mmHg 95%
    22:00 +20°C° 0.3 mm 0 mps 690 mmHg 95%
    23:00 +20°C° 1.5 mm 0 mps 689 mmHg 96%

    17 Diciembre, Martes

    Tiempo Temperatura Precipitaciones Viento Presión Humedad
    00:00 +20°C° 1.5 mm 0 mps 689 mmHg 96%
    01:00 +20°C° 1.5 mm 0 mps 689 mmHg 97%
    02:00 +20°C° 3.2 mm 0 mps 689 mmHg 97%
    03:00 +20°C° 3.2 mm 0 mps 688 mmHg 98%
    04:00 +20°C° 3.2 mm 0 mps 688 mmHg 98%
    05:00 +22°C° 2 mm 1 mps 689 mmHg 98%
    06:00 +22°C° 2 mm 1 mps 689 mmHg 98%
    07:00 +22°C° 2 mm 1 mps 690 mmHg 98%
    08:00 +21°C° 1.8 mm 2 mps 690 mmHg 97%
    09:00 +21°C° 1.8 mm 2 mps 689 mmHg 95%
    10:00 +21°C° 1.8 mm 3 mps 689 mmHg 93%
    11:00 +24°C° 0 mm 2 mps 689 mmHg 84%
    12:00 +26°C° 0 mm 1 mps 689 mmHg 74%
    13:00 +28°C° 0 mm 1 mps 688 mmHg 64%
    14:00 +29°C° 0.1 mm 1 mps 688 mmHg 64%
    15:00 +29°C° 0.1 mm 1 mps 688 mmHg 64%
    16:00 +29°C° 0.1 mm 1 mps 688 mmHg 64%
    17:00 +27°C° 0.2 mm 1 mps 688 mmHg 71%
    18:00 +23°C° 0.2 mm 0 mps 688 mmHg 78%
    19:00 +21°C° 0.2 mm 0 mps 688 mmHg 86%
    20:00 +21°C° 0.4 mm 0 mps 689 mmHg 88%
    21:00 +20°C° 0.4 mm 0 mps 689 mmHg 91%
    22:00 +20°C° 0.4 mm 0 mps 690 mmHg 94%
    23:00 +20°C° 1.2 mm 0 mps 689 mmHg 95%
    Mostrar más